Location: Binningen
(47.7924°N, 8.7261°E)
Time: 12:47:39
(UTC+00:00)

Cosmos 1733 Rocket - Pass Details

Date: 30 September 2021
Orbit: 604 x 627 km, 82.5° (Epoch: 22 October)

Event Time Altitude Azimuth Distance (km) Brightness Sun altitude
Rises 04:29:37 0° 344° (NNW) 2,895 6.4 -9.8°
Reaches altitude 10° 04:31:55 10° 338° (NNW) 1,988 5.5 -9.4°
Maximum altitude 04:36:03 42° 268° (W) 892 3.4 -8.7°
Drops below altitude 10° 04:40:12 10° 197° (SSW) 1,986 5.4 -8.0°
Sets 04:42:30 0° 191° (S) 2,891 6.3 -7.6°
